"Pseudo-MPEC" for C10EY75

Created 2025 Feb 7 4:31:04 UT using Find_Orb

Click here for an explanation of pseudo-MPECs

 
 Astrometry: 
     C10EY75* C2025 01 19.14701800 13 07.057+11 11 02.00   ~1J4H 22.02GVNEOCPV00
     C10EY75  C2025 01 19.15262900 13 06.942+11 10 57.61   ~1J4H 22.31GVNEOCPV00
     C10EY75  C2025 01 19.15824700 13 06.769+11 10 53.98   ~1J4H 22.49GVNEOCPV00

Station data:
(V00) Kitt Peak-Bok  (N31.963125 W111.600190)  US/Arizona.  Observers T. A.
   Pruyne, B. M. Africano, E. J. Christensen, G. A. Farneth, D. C. Fuls, A.
   R. Gibbs, A. D. Grauer, H. Gröller, J. A. Johnson, R. A. Kowalski, S. M.
   Larson, G. J. Leonard, D. Rankin, R. L. Seaman, F. C. Shelly, K. W.
   Wierzchoś. 2.25-m reflector + 4x4K mosaic CCD.

Orbital elements:  C10EY75
   Perihelion 2024 Dec 29.97658 +/- 58.3 TT = 23:26:16 (JD 2460674.47658)
Epoch 2025 Jan 19.0 TT = JDT 2460694.5   Earth MOID: 0.1239      AutoNEOCP
M   6.47321450 +/- 54               (J2000 ecliptic)
n   0.32328217 +/- 0.633            Peri.   26.16903 +/- 130
a   2.10255907 +/- 2.74             Node   110.19528 +/- 60
e   0.4816595 +/- 0.255             Incl.  169.15074 +/- 60
P   3.04875                H 20.33  G  0.15   U 12.4  SR
q 1.08984132 +/- 0.653    Q 3.11527682 +/- 24.9
From 3 observations 2025 Jan. 19 (16.2 min); mean residual 0".19
Residuals in arcseconds: 
250119 V00  .14-  .12+    250119 V00  .29+  .25-    250119 V00  .14-  .13+    

Ephemerides (geocentric):
Date (UTC) HH   RA             Dec           delta  r     elong  mag " sig PA
---- --------  ------------   ------------  ------ ------ -----  --- --------
2025 02 07 05  00 10 36.303   +09 09 18.70  1.5756 1.1762  48.2 23.2 7408 137
2025 02 07 06  00 10 36.382   +09 09 10.93  1.5768 1.1764  48.1 23.2 7452 137
2025 02 07 07  00 10 36.461   +09 09 03.18  1.5779 1.1765  48.1 23.2 7497 137
2025 02 07 08  00 10 36.541   +09 08 55.44  1.5791 1.1767  48.1 23.2 7541 137
2025 02 07 09  00 10 36.623   +09 08 47.74  1.5802 1.1769  48.0 23.2 7586 137
2025 02 07 10  00 10 36.705   +09 08 40.05  1.5814 1.1770  48.0 23.2 7631 137
2025 02 07 11  00 10 36.789   +09 08 32.38  1.5825 1.1772  47.9 23.2 7677 136
2025 02 07 12  00 10 36.873   +09 08 24.74  1.5837 1.1774  47.9 23.2 7722 136
2025 02 07 13  00 10 36.959   +09 08 17.12  1.5848 1.1776  47.9 23.2 7768 136
2025 02 07 14  00 10 37.046   +09 08 09.52  1.5860 1.1777  47.8 23.2 7814 136
2025 02 07 15  00 10 37.134   +09 08 01.94  1.5871 1.1779  47.8 23.2 7860 136
2025 02 07 16  00 10 37.223   +09 07 54.38  1.5883 1.1781  47.7 23.2 7907 136
2025 02 07 17  00 10 37.313   +09 07 46.84  1.5894 1.1783  47.7 23.2 7954 136
2025 02 07 18  00 10 37.404   +09 07 39.33  1.5906 1.1784  47.6 23.2 8001 136
2025 02 07 19  00 10 37.496   +09 07 31.83  1.5917 1.1786  47.6 23.2 8048 136
2025 02 07 20  00 10 37.589   +09 07 24.36  1.5929 1.1788  47.6 23.2 8096 136
2025 02 07 21  00 10 37.684   +09 07 16.91  1.5940 1.1789  47.5 23.2 8144 136
2025 02 07 22  00 10 37.779   +09 07 09.47  1.5952 1.1791  47.5 23.2 8192 136
2025 02 07 23  00 10 37.876   +09 07 02.06  1.5963 1.1793  47.4 23.2 8241 136
2025 02 08 00  00 10 37.973   +09 06 54.68  1.5974 1.1795  47.4 23.2 8289 136
2025 02 08 01  00 10 38.072   +09 06 47.31  1.5986 1.1796  47.3 23.2 8338 136
2025 02 08 02  00 10 38.171   +09 06 39.96  1.5997 1.1798  47.3 23.2 8388 136
2025 02 08 03  00 10 38.272   +09 06 32.63  1.6009 1.1800  47.3 23.2 8437 136
2025 02 08 04  00 10 38.373   +09 06 25.33  1.6020 1.1802  47.2 23.2 8487 136
2025 02 08 05  00 10 38.476   +09 06 18.04  1.6031 1.1803  47.2 23.2 8537 136
2025 02 08 06  00 10 38.580   +09 06 10.78  1.6043 1.1805  47.1 23.2 8587 136
2025 02 08 07  00 10 38.684   +09 06 03.53  1.6054 1.1807  47.1 23.2 8638 136
2025 02 08 08  00 10 38.790   +09 05 56.31  1.6066 1.1809  47.0 23.2 8689 136
2025 02 08 09  00 10 38.897   +09 05 49.11  1.6077 1.1810  47.0 23.2 8740 136
2025 02 08 10  00 10 39.005   +09 05 41.93  1.6088 1.1812  47.0 23.2 8792 136
2025 02 08 11  00 10 39.114   +09 05 34.76  1.6100 1.1814  46.9 23.2 8844 136
2025 02 08 12  00 10 39.224   +09 05 27.62  1.6111 1.1816  46.9 23.2 8896 136
2025 02 08 13  00 10 39.335   +09 05 20.50  1.6122 1.1818  46.8 23.2 8948 136
2025 02 08 14  00 10 39.447   +09 05 13.40  1.6134 1.1819  46.8 23.2 9001 136
2025 02 08 15  00 10 39.560   +09 05 06.32  1.6145 1.1821  46.8 23.2 9054 136
2025 02 08 16  00 10 39.673   +09 04 59.26  1.6156 1.1823  46.7 23.2 9107 136
2025 02 08 17  00 10 39.788   +09 04 52.22  1.6168 1.1825  46.7 23.2 9161 136
2025 02 08 18  00 10 39.904   +09 04 45.20  1.6179 1.1826  46.6 23.2 9214 136
2025 02 08 19  00 10 40.021   +09 04 38.20  1.6190 1.1828  46.6 23.2 9269 136
2025 02 08 20  00 10 40.139   +09 04 31.22  1.6202 1.1830  46.5 23.2 9323 136
2025 02 08 21  00 10 40.258   +09 04 24.26  1.6213 1.1832  46.5 23.2 9378 136
2025 02 08 22  00 10 40.378   +09 04 17.32  1.6224 1.1833  46.5 23.3 9433 136
2025 02 08 23  00 10 40.499   +09 04 10.40  1.6235 1.1835  46.4 23.3 9488 136
2025 02 09 00  00 10 40.621   +09 04 03.50  1.6247 1.1837  46.4 23.3 9544 136
2025 02 09 01  00 10 40.744   +09 03 56.62  1.6258 1.1839  46.3 23.3 9600 136
2025 02 09 02  00 10 40.868   +09 03 49.76  1.6269 1.1841  46.3 23.3 9656 136
2025 02 09 03  00 10 40.993   +09 03 42.92  1.6280 1.1842  46.2 23.3 9713 136
2025 02 09 04  00 10 41.119   +09 03 36.09  1.6292 1.1844  46.2 23.3 9770 136